Dewpoint
45 44 43 43 43 43 43 43 43 44 43 41 40 41 43 44 44 40 39 39 33 28 29 34 36 32 31 29 25 27 23 25 26 22 24 22 22 24 25 29 27 25 23 22 22 19 15 30 28 25 31 33 32 29
44 44 43 43 43 43 43 43 43 43 43 42 41 41 42 43 42 40 38 41 39 32 29 36 36 35 34 33 31 30 27 27 29 22 22 25 23 24 24 20 30 21 30 25 27 25 30 32 32 34 34 32 32 30
45 44 44 43 43 43 42 40 42 43 42 43 42 41 42 42 42 41 38 38 35 29 28 29 31 35 37 35 35 27 29 31 32 31 28 27 24 23 21 22 25 30 30 26 28 29 29 29 29 30 31 30 30 32
44 43 44 44 43 42 42 42 42 43 42 42 42 41 41 41 41 40 37 38 35 34 23 27 33 30 37 37 36 34 33 36 35 31 28 25 25 27 24 25 26 30 27 27 26 29 29 28 27 28 28 30 28 26
43 44 44 44 43 42 42 42 43 43 43 42 41 41 40 40 41 39 38 37 37 31 25 27 31 33 35 37 36 36 34 32 28 25 22 23 28 26 27 28 27 28 25 21 14 28 29 28 30 30 27 27 29 28
43 43 43 43 43 42 41 42 43 42 42 42 41 39 39 40 38 34 27 36 39 41 28 23 30 31 33 36 37 36 34 35 32 28 23 25 29 26 18 22 29 30 31 32 30 31 29 29 30 31 32 30 28 27
41 41 43 43 43 42 42 42 42 42 41 42 41 40 39 40 36 31 29 39 41 41 31 22 25 32 35 35 34 36 37 35 34 32 28 27 26 29 23 25 28 29 30 30 32 30 26 28 27 28 31 29 29 27
41 41 41 42 42 43 42 42 42 41 41 41 41 40 39 38 34 31 38 42 42 38 35 21 23 31 35 31 30 31 33 34 33 32 28 27 28 27 20 29 30 29 29 29 28 28 27 26 25 25 27 25 22 21
40 40 41 41 42 42 42 42 41 41 41 41 40 38 34 33 30 30 41 42 41 37 28 27 21 19 35 33 29 30 29 26 29 25 27 27 21 19 22 28 27 25 25 28 28 26 24 22 19 19 20 19 18 17
39 39 39 41 42 42 42 41 41 41 41 38 33 28 22 30 35 40 37 34 35 35 33 28 27 26 31 27 29 27 32 26 23 26 29 23 18 24 23 23 22 21 23 26 22 21 22 18 17 16 16 15 15 15
37 37 37 37 41 42 42 41 41 40 36 31 25 23 30 37 34 30 27 27 30 26 30 27 27 23 31 24 23 25 27 28 23 24 25 23 19 22 22 20 20 19 19 19 19 19 20 18 17 15 14 14 14 14
36 36 37 38 39 41 41 40 39 35 31 31 32 35 35 30 27 23 23 25 26 22 26 27 27 28 29 28 25 30 26 28 23 31 27 18 16 21 18 17 16 16 15 15 16 17 16 15 14 13 12 13 13 12
36 36 36 38 38 40 40 40 37 37 37 34 30 29 27 23 17 18 16 23 23 23 23 25 22 27 29 29 27 27 25 23 25 23 16 13 19 18 17 16 15 14 14 13 13 13 13 12 11 11 8 6 4 5
36 36 36 36 37 39 41 39 39 35 29 21 19 12 16 18 20 17 20 20 23 22 24 25 24 26 29 25 18 12 19 26 22 20 13 14 17 18 17 16 14 13 12 11 8 8 8 7 1 -3 -4 -6 -1 -1
37 36 36 36 37 39 40 39 38 33 26 24 25 14 13 20 26 28 24 28 31 28 25 25 26 28 26 26 26 21 23 22 18 14 10 15 18 17 16 15 12 10 7 6 2 3 -2 -0 4 -1 -4 -4 -2 -6
36 35 33 37 36 38 39 37 36 31 26 23 24 18 18 19 20 18 32 32 34 24 26 27 25 21 23 20 24 20 18 13 13 12 12 17 16 14 14 13 10 9 7 5 5 5 3 1 1 0 -2 -1 -6 -6
35 31 35 36 37 38 38 34 32 26 23 24 22 25 19 20 26 28 30 32 34 31 27 28 20 22 26 23 23 25 19 12 13 17 17 16 14 12 11 11 9 8 8 8 5 5 2 2 2 8 5 0 2 1
29 35 36 37 37 37 35 34 29 26 22 18 14 16 19 26 27 28 29 32 32 32 27 24 26 22 22 18 13 13 19 17 13 13 11 11 12 12 12 9 8 9 8 6 6 2 3 3 6 4 4 3 5 5
34 35 37 37 36 35 30 30 29 19 16 16 17 20 25 27 26 26 29 30 32 32 27 24 17 16 16 16 14 6 13 13 14 8 4 2 10 10 8 8 8 5 7 5 6 9 7 9 10 9 9 11 7 10
37 38 38 37 37 34 28 27 29 25 18 19 22 24 25 25 24 20 27 29 30 31 27 21 18 15 17 15 15 12 15 16 15 12 6 2 3 9 10 12 11 8 9 5 6 8 9 10 11 12 12 12 8 8
35 36 37 37 35 35 30 26 26 25 25 22 25 26 23 25 21 18 25 29 29 21 18 15 12 19 10 11 16 18 17 18 16 14 13 10 7 14 11 11 11 11 10 9 9 6 8 10 10 13 5 -2 -4 -1
33 36 34 34 31 31 30 29 26 25 24 25 25 25 19 15 14 22 26 25 23 19 17 18 20 15 15 15 15 18 18 17 16 15 14 14 12 12 13 11 12 10 10 8 11 9 11 13 12 9 1 -6 -3 -3
35 33 30 29 26 25 21 30 25 25 20 19 25 19 16 14 19 24 13 20 18 15 15 16 14 16 15 9 17 16 16 16 15 15 15 15 15 13 13 11 13 10 10 12 15 11 9 8 6 2 -3 -5 -5 -10
34 28 25 23 22 18 25 22 28 24 21 20 20 13 17 17 21 14 14 13 14 14 17 14 21 18 18 19 16 17 17 17 16 16 16 15 14 14 15 15 16 16 17 16 15 11 9 4 2 1 -6 -8 -11 -10
19 17 20 15 25 20 16 15 20 21 8 12 16 9 15 18 10 8 10 11 20 20 14 18 19 20 18 13 15 16 19 17 16 15 16 16 16 16 16 16 17 17 17 12 3 3 -4 -10 -9 -5 -5 -7 1 -6
16 19 23 22 23 19 18 12 13 10 10 9 11 12 11 7 9 8 13 14 18 23 23 23 19 17 18 19 18 18 19 19 17 16 17 19 19 17 15 14 11 13 15 14 8 3 2 -4 -5 -2 -7 -6 -5 -9
18 21 24 27 27 27 22 20 22 18 11 8 7 6 7 5 3 9 17 18 19 15 21 25 23 21 19 19 19 19 20 19 17 17 18 19 18 18 17 14 12 14 14 12 11 9 8 5 1 2 1 -9 -5 -1
17 20 12 21 23 23 20 17 15 13 10 17 12 6 5 5 4 10 13 16 20 20 20 22 23 21 20 19 17 16 13 13 13 13 13 11 8 5 6 8 10 15 13 12 12 11 11 10 7 4 1 3 3 -4
15 19 19 11 16 16 13 13 12 15 16 16 7 2 6 13 11 11 14 16 19 19 17 17 15 15 15 14 13 13 15 16 11 5 3 3 3 7 2 2 7 8 8 7 12 11 11 11 9 7 5 5 3 -3
16 21 16 12 13 10 5 12 9 7 12 13 14 12 10 9 11 13 11 11 16 11 12 12 12 12 13 13 8 7 3 3 5 12 11 9 11 6 5 5 5 5 8 9 9 9 11 7 9 5 4 1 -0 -0
20 20 15 13 10 8 7 4 3 5 5 6 5 4 5 6 10 10 8 9 11 17 16 11 10 9 13 13 12 12 11 5 -0 3 5 5 8 9 7 4 4 4 5 6 5 2 -1 -1 1 4 6 4 3 3
11 10 10 6 6 5 5 6 6 3 0 1 1 -3 4 2 -4 3 7 7 7 6 7 12 15 13 9 12 11 12 10 10 9 8 8 6 2 2 6 7 6 5 2 1 -0 -1 -0 0 0 1 4 3 3 1
4 3 0 -4 -2 -1 -2 2 5 5 4 1 -0 -1 -6 -10 -8 -3 3 6 5 8 8 8 8 8 9 11 11 8 5 6 6 10 6 6 4 7 7 7 8 7 4 3 1 0 0 -0 -0 0 2 2 0 -1
Lifted_Index
1 2 3 4 4 5 5 4 5 5 6 6 7 7 6 6 6 5 5 6 6 6 5 5 5 6 6 6 7 7 6 6 6 5 5 4 4 3 3 3 2 2 2 2 2 2 2 3 3 4 5 6 6 6
1 2 2 3 4 5 5 5 5 5 5 6 7 7 6 6 6 6 6 6 6 6 6 5 5 5 6 6 6 6 6 6 6 5 5 4 4 4 3 3 3 2 2 2 2 2 3 4 4 5 5 6 6 6
1 1 2 3 3 4 5 5 5 5 5 6 6 6 6 6 6 6 6 6 6 6 6 5 5 5 5 6 6 6 6 6 6 6 5 5 5 4 4 4 3 3 3 3 2 3 3 4 5 5 6 6 6 6
1 1 2 2 3 4 4 5 5 5 5 6 6 6 6 6 6 6 6 6 6 6 5 5 4 4 5 5 5 6 6 6 6 6 6 6 5 5 4 4 4 3 3 3 3 2 3 4 5 6 6 6 7 7
1 1 1 2 2 3 4 4 4 5 5 5 6 6 7 7 7 7 7 7 7 6 5 5 4 4 5 5 5 5 5 5 6 6 6 6 5 5 5 4 4 3 3 3 3 2 3 4 5 6 6 6 7 7
2 1 1 2 2 3 3 3 4 4 5 5 6 6 7 7 7 7 7 7 7 6 6 5 5 4 4 4 5 5 5 5 5 6 6 6 5 5 5 4 4 3 3 3 3 3 3 4 5 6 6 7 8 8
3 2 2 2 2 2 2 3 4 4 5 5 6 7 7 8 8 8 7 7 6 6 6 6 5 4 4 4 4 4 5 5 5 5 5 5 5 5 5 4 4 3 3 3 3 3 3 4 5 6 7 8 8 8
3 2 2 2 2 2 2 3 3 4 5 5 6 7 7 8 8 8 7 7 6 6 6 6 5 4 4 4 4 4 4 5 5 5 5 5 5 4 4 4 3 3 3 2 3 3 4 5 6 7 8 8 8 8
2 2 2 2 2 2 2 3 3 4 5 5 6 7 8 8 8 7 7 6 6 6 6 5 4 4 3 4 4 4 4 4 4 4 4 4 4 4 3 3 3 3 3 3 3 4 4 5 6 7 8 8 8 8
2 2 2 2 2 2 2 2 3 4 5 6 7 7 8 8 7 7 7 6 6 6 5 5 4 4 3 3 3 4 4 3 3 3 3 2 2 3 3 3 3 3 4 4 4 4 5 6 6 7 8 8 9 9
3 3 2 2 2 2 2 2 3 4 5 6 6 7 7 7 7 7 7 6 6 5 5 5 4 3 3 3 3 3 3 3 2 2 2 1 1 2 2 3 4 5 5 5 6 6 6 7 7 8 9 10 10 11
3 3 3 2 2 2 2 3 4 5 5 5 6 6 6 6 6 6 6 6 5 5 4 4 4 3 3 2 2 3 3 2 2 2 1 1 1 1 2 4 5 6 6 7 7 8 8 9 9 10 10 11 11 12
3 3 3 3 2 2 2 3 4 5 5 5 5 5 5 5 6 6 6 5 4 4 3 3 3 3 2 2 2 2 2 2 2 2 1 1 1 2 3 4 5 6 7 7 8 9 9 10 10 11 11 12 12 12
3 3 3 3 3 2 2 3 4 5 5 5 5 5 5 5 5 5 5 4 3 3 2 2 2 2 2 2 2 2 2 2 2 2 1 1 1 2 3 5 6 7 7 8 9 9 10 10 11 11 12 13 13 13
3 3 3 3 3 3 3 3 4 5 5 5 5 5 5 5 5 5 4 4 3 2 2 1 1 2 2 2 2 2 2 2 2 2 1 1 2 3 4 5 6 7 8 9 9 10 10 11 11 12 12 13 13 13
3 3 4 4 3 3 3 4 4 5 5 6 6 5 5 4 4 4 4 3 2 2 2 2 2 2 2 2 2 2 2 2 2 1 1 2 3 4 5 6 7 8 9 9 10 11 11 11 12 12 13 13 13 13
4 4 4 4 4 4 4 4 5 5 6 6 5 5 4 4 3 3 3 2 2 1 1 2 2 2 2 2 2 2 2 2 2 2 2 3 4 5 6 7 8 9 10 10 11 12 12 12 13 13 13 13 14 14
4 4 4 4 4 4 4 4 5 5 5 5 5 4 4 3 3 3 3 2 1 1 1 1 2 2 2 2 2 2 2 2 2 2 3 4 5 6 8 8 9 10 11 11 12 13 13 13 13 13 13 13 14 14
3 3 4 4 4 4 4 4 5 5 5 5 5 5 4 3 3 3 3 2 1 1 1 1 1 1 2 2 2 2 2 2 2 3 4 5 7 8 9 10 11 11 12 13 13 14 14 14 14 14 14 14 14 14
3 4 4 4 4 4 4 4 5 5 5 5 5 5 4 4 3 3 4 3 2 1 1 1 1 2 2 2 2 2 2 3 3 3 4 6 7 9 10 11 12 12 13 13 14 14 14 14 14 14 14 14 14 14
4 4 4 4 4 4 4 4 4 5 5 5 4 4 4 4 4 4 4 3 2 2 1 1 2 2 2 2 2 3 3 3 4 4 5 6 8 9 11 12 12 13 13 13 14 14 14 14 15 15 15 15 15 15
5 5 5 5 5 4 4 4 4 4 5 4 4 4 4 4 4 4 4 3 3 2 2 2 2 3 3 3 3 3 4 4 5 6 7 8 9 10 11 12 13 13 13 13 14 14 14 15 15 15 15 15 15 15
6 6 5 5 5 5 4 4 4 4 4 4 4 3 3 3 3 4 3 3 2 3 3 3 3 3 3 3 4 4 4 5 6 8 9 10 11 11 12 13 13 13 13 14 14 14 14 15 15 15 15 15 15 15
5 5 5 5 5 5 4 4 4 4 4 3 3 3 3 3 3 3 2 2 2 3 3 3 4 4 4 4 4 5 5 6 8 9 10 11 11 12 13 13 14 14 14 14 14 14 15 15 15 15 15 14 14 14
5 5 5 5 5 5 4 4 4 3 3 3 2 3 3 3 2 2 2 2 2 3 3 4 4 4 4 5 5 5 7 8 9 10 11 12 12 12 13 13 14 14 15 15 14 14 14 15 15 15 14 14 14 14
5 5 5 5 4 4 4 3 3 3 2 2 2 3 3 2 2 2 2 2 3 4 4 5 5 5 5 6 6 7 9 10 11 12 13 13 13 13 13 13 13 14 14 14 15 14 15 15 15 14 14 14 14 14
5 5 4 4 4 4 3 3 3 3 2 2 2 3 2 2 2 2 3 5 6 7 7 7 7 7 8 8 9 10 11 12 13 13 14 14 14 14 14 14 14 14 15 15 15 15 15 15 15 15 14 14 14 14
5 4 4 4 4 4 4 3 3 3 3 3 3 2 2 3 3 4 6 8 10 10 10 10 10 10 11 11 12 12 13 14 14 14 14 14 14 15 15 15 15 15 15 15 15 15 15 15 15 15 15 14 15 15
5 4 4 4 4 4 4 4 4 4 5 4 4 4 4 5 7 9 10 12 12 12 12 12 12 13 13 13 13 14 14 14 14 13 13 13 14 14 15 15 15 15 15 15 15 15 16 16 16 16 15 15 15 15
5 5 5 4 4 5 5 6 6 6 6 6 6 6 6 8 11 13 13 14 14 14 14 14 14 14 14 13 13 14 14 15 14 14 13 14 14 15 15 15 15 15 15 15 15 16 16 16 16 16 15 15 15 15
6 6 5 5 5 6 7 7 7 7 7 7 8 8 8 9 12 14 15 15 15 15 15 15 15 15 14 14 14 14 15 15 15 15 15 15 15 15 15 15 15 16 16 16 16 16 16 16 16 15 15 15 14 14
7 6 6 5 6 7 8 8 7 7 8 8 8 9 10 10 11 14 17 18 17 16 16 16 16 16 16 16 16 16 16 16 16 16 16 16 16 16 16 16 16 17 17 17 17 17 17 16 16 16 15 15 14 14
7 7 7 6 6 7 8 8 7 7 7 8 9 10 11 10 10 14 19 19 18 17 17 17 17 17 17 17 17 16 17 17 17 17 17 17 17 16 17 17 17 17 17 17 17 17 17 17 16 16 15 15 14 14